This is the latest recevied weather packets stored in our database for station/object OE-11051. If no packets are shown the sender has not sent any weather packets the latest 10 day(s).
| Time | Temp. | Humidity | Pressure | Rain* | Wind** | Luminosity | Snow |
|---|---|---|---|---|---|---|---|
| 1788004507 | 23.33° C | 52% | 1016.2 hPa | 0 mm | - | 780 W/m² | - |
| 1788003680 | 23.33° C | 51% | 1016.5 hPa | 0 mm | - | 716 W/m² | - |
| 1788003307 | 22.78° C | 52% | 1016.6 hPa | 0 mm | - | 767 W/m² | - |
| 1788002707 | 22.78° C | 53% | 1016.8 hPa | 0 mm | - | 754 W/m² | - |
| 1788001880 | 22.78° C | 53% | 1016.8 hPa | 0 mm | - | 767 W/m² | - |
| 1788001506 | 22.78° C | 54% | 1016.9 hPa | 0 mm | - | 793 W/m² | - |
| 1788000907 | 22.78° C | 54% | 1017 hPa | 0 mm | - | 767 W/m² | - |
| 1788000080 | 22.78° C | 52% | 1017.1 hPa | 0 mm | - | 767 W/m² | - |
| 1787999707 | 22.22° C | 55% | 1017.2 hPa | 0 mm | - | 793 W/m² | - |
| 1787999107 | 22.22° C | 57% | 1017.2 hPa | 0 mm | - | 741 W/m² | - |
| 1787998280 | 21.67° C | 56% | 1017.3 hPa | 0 mm | - | 722 W/m² | - |
| 1787997906 | 21.11° C | 58% | 1017.5 hPa | 0 mm | - | 703 W/m² | - |
| 1787997307 | 21.67° C | 59% | 1017.5 hPa | 0 mm | - | 683 W/m² | - |
| 1787996480 | 21.67° C | 59% | 1017.6 hPa | 0 mm | - | 670 W/m² | - |
| 1787996107 | 21.67° C | 60% | 1017.6 hPa | 0 mm | - | 645 W/m² | - |
| 1787995507 | 20.56° C | 62% | 1017.8 hPa | 0 mm | - | 580 W/m² | - |
| 1787994680 | 20.56° C | 64% | 1018 hPa | 0 mm | - | 606 W/m² | - |
| 1787994307 | 20.56° C | 62% | 1017.8 hPa | 0 mm | - | 522 W/m² | - |
| 1787993707 | 20° C | 64% | 1018.1 hPa | 0 mm | - | 587 W/m² | - |
| 1787992879 | 20.56° C | 65% | 1017.9 hPa | 0 mm | - | 574 W/m² | - |
| 1787992506 | 20° C | 66% | 1018 hPa | 0 mm | - | 548 W/m² | - |
| 1787991907 | 20° C | 69% | 1017.9 hPa | 0 mm | - | 522 W/m² | - |
| 1787991080 | 19.44° C | 69% | 1017.9 hPa | 0 mm | - | 503 W/m² | - |
| 1787990706 | 18.89° C | 70% | 1018 hPa | 0 mm | - | 477 W/m² | - |
| 1787990107 | 18.89° C | 71% | 1018 hPa | 0 mm | - | 458 W/m² | - |
* Rain latest hour (hover to see other rain measurements)
** Current wind speed in m/s (hover to see current wind gust speed)